{"data":{"norad_id":64150,"epoch":"2026-09-20T20:52:32.468736Z","epoch_age_seconds":108398,"freshness":"FRESH","line1":"1 64150U 25112E   26263.86982024  .00009177  00000+0  28625-3 0  9994","line2":"2 64150  97.2834 310.9116 0000856  93.1028 267.0313 15.33445261 72807","mean_motion":15.33445261,"eccentricity":8.56e-5,"inclination_deg":97.2834,"raan_deg":310.9116,"arg_perigee_deg":93.1028,"mean_anomaly_deg":267.0313,"bstar":0.00028625,"rev_number":7280,"period_min":93.906188673532,"perigee_km":464.95657896941,"apogee_km":466.12821688233,"semimajor_km":6843.6793979259,"source":"CELESTRAK","updated_at":"2026-09-21T09:00:35.238219Z"}}